TimeAKDT,TemperatureF,Dew PointF,Humidity,Sea Level PressureIn,VisibilityMPH,Wind Direction,Wind SpeedMPH,Gust SpeedMPH,PrecipitationIn,Events,Conditions,WindDirDegrees,DateUTC
12:32 AM,-14.8,-18.4,84,30.07,5.0,NNE,9.2,-,N/A,,Haze,20,2013-03-22 08:32:00
12:53 AM,-15.0,-20.9,75,30.07,9.0,North,9.2,-,0.00,,Mostly Cloudy,10,2013-03-22 08:53:00
1:53 AM,-15.0,-20.9,75,30.06,10.0,North,11.5,-,N/A,,Mostly Cloudy,10,2013-03-22 09:53:00
2:27 AM,-14.8,-20.2,77,30.06,9.0,North,12.7,-,N/A,,Scattered Clouds,10,2013-03-22 10:27:00
2:53 AM,-14.1,-20.0,75,30.06,10.0,NNE,11.5,-,N/A,,Partly Cloudy,20,2013-03-22 10:53:00
3:53 AM,-18.0,-23.1,78,30.06,10.0,North,10.4,-,0.00,,Partly Cloudy,350,2013-03-22 11:53:00
4:53 AM,-15.0,-20.0,78,30.05,9.0,NNW,5.8,-,N/A,,Overcast,340,2013-03-22 12:53:00
5:53 AM,-14.1,-20.0,75,30.05,10.0,North,9.2,-,0.00,,Overcast,350,2013-03-22 13:53:00
6:53 AM,-15.0,-22.0,71,30.02,10.0,North,8.1,-,N/A,,Partly Cloudy,360,2013-03-22 14:53:00
7:53 AM,-14.1,-22.0,68,30.01,10.0,North,11.5,-,N/A,,Partly Cloudy,350,2013-03-22 15:53:00
8:53 AM,-13.0,-20.9,68,30.00,10.0,North,15.0,-,N/A,,Mostly Cloudy,350,2013-03-22 16:53:00
9:53 AM,-13.0,-20.9,68,29.98,10.0,North,16.1,-,N/A,,Mostly Cloudy,350,2013-03-22 17:53:00
10:53 AM,-11.0,-20.0,64,29.97,10.0,North,18.4,-,N/A,,Scattered Clouds,350,2013-03-22 18:53:00
11:53 AM,-9.0,-18.0,65,29.95,10.0,North,18.4,-,N/A,,Scattered Clouds,350,2013-03-22 19:53:00
12:53 PM,-6.0,-15.0,65,29.95,10.0,North,13.8,-,N/A,,Scattered Clouds,360,2013-03-22 20:53:00
1:53 PM,-4.0,-14.1,62,29.94,10.0,North,16.1,-,N/A,,Partly Cloudy,360,2013-03-22 21:53:00
2:53 PM,-2.0,-11.0,66,29.94,10.0,North,16.1,-,N/A,,Partly Cloudy,350,2013-03-22 22:53:00
3:53 PM,-0.0,-9.9,63,29.92,10.0,North,20.7,-,N/A,,Clear,350,2013-03-22 23:53:00
4:53 PM,1.0,-9.0,63,29.91,10.0,North,16.1,-,N/A,,Clear,360,2013-03-23 00:53:00
5:53 PM,1.0,-9.0,63,29.91,10.0,NNW,17.3,-,N/A,,Clear,340,2013-03-23 01:53:00
6:53 PM,1.0,-9.0,63,29.91,10.0,NNW,18.4,-,N/A,,Clear,330,2013-03-23 02:53:00
7:53 PM,1.0,-9.9,60,29.90,10.0,NW,13.8,-,N/A,,Clear,320,2013-03-23 03:53:00
8:19 PM,-0.4,-9.4,66,29.90,10.0,NW,13.8,-,N/A,,Clear,320,2013-03-23 04:19:00
8:53 PM,-0.9,-11.0,62,29.89,10.0,NW,16.1,-,N/A,,Clear,320,2013-03-23 04:53:00
9:53 PM,-5.1,-11.9,72,29.91,10.0,WNW,17.3,-,N/A,,Clear,300,2013-03-23 05:53:00
10:53 PM,-5.1,-13.0,69,29.90,10.0,WNW,20.7,-,N/A,,Clear,300,2013-03-23 06:53:00
11:53 PM,-7.1,-14.1,72,29.89,10.0,WNW,19.6,-,N/A,,Clear,300,2013-03-23 07:53:00